Regional Weather Roundup
Issued by NWS Kansas City/Pleasant Hill, MO

Home | Current Version | Previous Version | Graphics & Text | Print | Product List | Glossary Off
Versions: 1 2 3 4 5 6 7 8 9 10 11 12 13 14 15 16 17 18 19 20 21 22 23 24 25 26 27 28 29 30 31 32 33 34 35 36 37 38 39 40 41 42 43 44 45 46 47 48 49 50

000
ASUS43 KEAX 021004
RWREAX

WEATHER ROUNDUP FOR EASTERN KANSAS AND NORTHWEST MISSOURI
NATIONAL WEATHER SERVICE KANSAS CITY/PLEASANT HILL MO
500 AM CDT THU JUL 02 2015

KSZ040-057-103>105-MOZ028-029-037-043-021100-
...KANSAS CITY METROPOLITAN AREA...

CITY           SKY/WX    TMP DP  RH WIND       PRES   REMARKS
K.C. INTL      CLOUDY    72  69  90 NE10      29.86R
K.C. DOWNTOWN  CLOUDY    74  70  87 NE10      29.84S
LEES SUMMIT    CLOUDY    71  69  93 E9        29.85S
OLATHE - IXD   MOCLDY    72  69  90 NE13      29.84S
OLATHE - OJC   CLOUDY    71  69  93 E14       29.83S
LAWRENCE       PTCLDY    73  69  87 NE10      29.84S

$$

MOZ001>008-011>017-020>025-030>033-038>040-044>046-053-054-021100-
...NORTHERN AND CENTRAL MISSOURI...

CITY           SKY/WX    TMP DP  RH WIND       PRES   REMARKS
ST. JOSEPH     CLOUDY    71  67  87 NE8       29.88R
MOSBY          CLOUDY    72  68  88 NE6       29.85S
HARRISONVILLE  CLOUDY    72  70  94 NE7       29.86R
WHITEMAN AFB   CLOUDY    71  70  97 E6        29.83R
CLINTON        CLOUDY    72  72 100 E7        29.83S FOG
SEDALIA        CLOUDY    72  69  90 E6        29.85R
WARSAW         CLOUDY    68  68 100 CALM      29.84S
CHILLICOTHE      N/A     71  67  87 E7        29.90R
KIRKSVILLE     CLOUDY    65  63  93 NE12      29.91R

$$

MOZ041-047>049-056>058-063>065-088>090-097-021100-
...EASTERN AND SOUTHERN MISSOURI...

CITY           SKY/WX    TMP DP  RH WIND       PRES   REMARKS
ST. LOUIS INTL CLOUDY    74  69  85 NE8       29.84S
SPIRIT OF STL  CLOUDY    71  71 100 SE3       29.82S
COLUMBIA       MOCLDY    70  68  93 N5        29.85R
JEFFERSON CITY CLOUDY    70  68  93 E3        29.84R
MEXICO         CLOUDY   N/A N/A N/A NE7       29.86R
ROLLA          MOCLDY    66  66 100 CALM      29.83F
LEBANON        MOCLDY    68  64  88 SW5       29.84F
OSAGE BEACH    CLOUDY    68  64  88 CALM      29.84S
SPRINGFIELD    CLOUDY    70  66  87 S10       29.86F
JOPLIN         CLOUDY    75  70  84 E5        29.82R
WEST PLAINS    LGT RAIN  70  66  87 S12       29.87F
MALDEN         LGT RAIN  79  73  83 NW8       29.86R

$$

IAZ060-094-KSZ022-034>040-054-083-096-NEZ052-066-093-021100-
...KANSAS...SOUTHEAST NEBRASKA AND IOWA...

CITY           SKY/WX    TMP DP  RH WIND       PRES   REMARKS
TOPEKA         CLOUDY    73  71  93 N6        29.85R
MANHATTAN      LGT RAIN  75  71  87 NE8       29.88R
EMPORIA        CLEAR     71  69  93 N7        29.84R
CHANUTE        PTCLDY    71  68  90 E3        29.79R
WICHITA        MOCLDY    77  72  84 CALM      29.85R
OMAHA          MOCLDY    65  59  81 NE3       29.94S
LINCOLN        CLOUDY    69  65  86 E9        29.94R FOG
FALLS CITY     CLOUDY    70  67  90 E8        29.88S
LAMONI         CLOUDY    64  61  90 NE7       29.93R
DES MOINES     PTCLDY    60  54  80 NE9       29.96R

$$




USA.gov is the U.S. government's official web portal to all federal, state and local government web resources and services.